TimeCDT,TemperatureF,Dew PointF,Humidity,Sea Level PressureIn,VisibilityMPH,Wind Direction,Wind SpeedMPH,Gust SpeedMPH,PrecipitationIn,Events,Conditions,WindDirDegrees,DateUTC
12:54 AM,39.9,30.9,70,29.99,10.0,WSW,8.1,-,N/A,,Overcast,250,2013-04-13 05:54:00
1:54 AM,39.9,30.9,70,29.98,10.0,WSW,6.9,-,N/A,,Overcast,250,2013-04-13 06:54:00
2:54 AM,39.0,30.9,73,29.98,10.0,WSW,9.2,-,N/A,,Overcast,250,2013-04-13 07:54:00
3:54 AM,37.0,30.0,76,29.98,10.0,West,6.9,-,N/A,,Partly Cloudy,260,2013-04-13 08:54:00
4:54 AM,36.0,28.0,73,30.00,10.0,West,9.2,-,N/A,,Clear,280,2013-04-13 09:54:00
5:54 AM,35.1,26.1,70,30.00,10.0,WNW,10.4,-,N/A,,Clear,290,2013-04-13 10:54:00
6:54 AM,34.0,26.1,73,30.02,10.0,West,6.9,-,N/A,,Mostly Cloudy,280,2013-04-13 11:54:00
7:10 AM,33.8,26.6,75,30.01,10.0,WNW,15.0,18.4,N/A,,Scattered Clouds,290,2013-04-13 12:10:00
7:54 AM,36.0,26.1,67,30.04,10.0,West,13.8,20.7,N/A,,Clear,280,2013-04-13 12:54:00
8:54 AM,37.9,26.1,62,30.05,10.0,WNW,18.4,-,N/A,,Clear,290,2013-04-13 13:54:00
9:54 AM,39.9,27.0,60,30.05,10.0,WNW,15.0,19.6,N/A,,Clear,290,2013-04-13 14:54:00
10:54 AM,43.0,28.9,58,30.05,10.0,West,12.7,-,N/A,,Clear,260,2013-04-13 15:54:00
11:54 AM,46.0,28.9,51,30.04,10.0,West,13.8,20.7,N/A,,Clear,280,2013-04-13 16:54:00
12:54 PM,48.0,30.0,50,30.03,10.0,WNW,8.1,18.4,N/A,,Clear,290,2013-04-13 17:54:00
1:54 PM,52.0,32.0,47,30.01,10.0,West,12.7,17.3,N/A,,Clear,260,2013-04-13 18:54:00
2:54 PM,52.0,32.0,47,29.99,10.0,WNW,8.1,-,N/A,,Partly Cloudy,300,2013-04-13 19:54:00
3:54 PM,53.1,34.0,48,29.97,10.0,SW,8.1,-,N/A,,Mostly Cloudy,220,2013-04-13 20:54:00
4:54 PM,53.1,34.0,48,29.96,10.0,SSW,5.8,-,N/A,,Scattered Clouds,210,2013-04-13 21:54:00
5:39 PM,53.6,35.6,51,29.93,2.5,South,6.9,-,N/A,,Haze,190,2013-04-13 22:39:00
5:54 PM,53.1,35.1,50,29.94,10.0,SSW,5.8,-,N/A,,Overcast,210,2013-04-13 22:54:00
6:54 PM,53.6,35.6,51,29.92,10.0,SSE,3.5,-,N/A,,Overcast,160,2013-04-13 23:54:00
7:54 PM,50.0,37.0,61,29.91,10.0,SE,5.8,-,N/A,,Scattered Clouds,130,2013-04-14 00:54:00
8:54 PM,50.0,37.0,61,29.90,10.0,East,5.8,-,N/A,,Overcast,100,2013-04-14 01:54:00
9:54 PM,50.0,37.0,61,29.90,10.0,ESE,8.1,-,N/A,,Overcast,110,2013-04-14 02:54:00
10:54 PM,48.9,37.9,66,29.91,10.0,ESE,9.2,-,0.00,Rain,Light Rain,120,2013-04-14 03:54:00
11:30 PM,50.0,37.4,62,29.89,10.0,ESE,10.4,-,0.00,Rain-Thunderstorm,Light Rain,110,2013-04-14 04:30:00
11:45 PM,50.0,37.4,62,29.89,10.0,ESE,11.5,-,0.00,,Overcast,110,2013-04-14 04:45:00
11:54 PM,48.9,37.9,66,29.89,9.0,ESE,11.5,-,0.02,Rain,Rain,110,2013-04-14 04:54:00